Flag for Germany Weather past 2 weeks in Zerbst/Anhalt, Saxony-Anhalt, Germany

Now
40 °F

Overcast.


Feels Like: 37 °F
Forecast: 35 / 40 °F
Wind: 5 mph from Northwest

Location: Magdeburg

Current Time: Jan 27, 2015 at 12:27:19 PM

Latest Report: Jan 27, 2015 at 12:00 PM


Visibility: 28 mi

Pressure: 30.00 "Hg

Humidity: 80%

Dew point: 34 °F

Location of Zerbst/AnhaltLocation

Historic Weather in Zerbst/Anhalt — Graph

°F

Zerbst/Anhalt temperature yesterday

Maximum temperature yesterday: 41 °F (at 3:00 PM)
Minimum temperature yesterday: 34 °F (at 8:00 AM)
Average temperature yesterday: 37 °F

Past Weeks' High & Low Weather Summary

 TemperatureHumidityPressure
High54 °F (Jan 13, 2:00 PM)98% (Jan 20, 9:00 AM)30.34 "Hg (Jan 20, 9:00 AM)
Low24 °F (Jan 19, 7:00 AM)58% (Jan 13, 5:00 PM)29.55 "Hg (Jan 15, 7:00 PM)
Average36 °F85%29.97 "Hg
* Reported Jan 12 11:00 AM — Jan 27 11:00 AM, Zerbst/Anhalt, Weather by CustomWeather, © 2014

Note: Actual official high and low records may vary slightly from our data, if they occured in-between our weather recording intervals... More about our weather records

Advertising

Zerbst/Anhalt weather history for previous 24 hours

 ConditionsComfort  
Time TempWeatherWind HumidityBarometerVisibility
11:00 AM
Jan 27
39 °FOvercast.6 mph83%30.00 "Hg28 mi
10:00 AM38 °FPartly sunny.5 mph83%30.00 "Hg28 mi
9:00 AM38 °FOvercast.5 mph85%29.99 "Hg28 mi
8:00 AM38 °FOvercast.3 mph85%29.97 "Hg22 mi
7:00 AM38 °FLight rain. Overcast.6 mph87%29.96 "Hg16 mi
6:00 AM38 °FOvercast.5 mph87%29.94 "Hg28 mi
5:00 AM38 °FOvercast.5 mph85%29.93 "Hg28 mi
3:00 AM39 °FOvercast.3 mph87%29.92 "Hg25 mi
2:00 AM38 °FOvercast.5 mph88%29.91 "Hg25 mi
1:00 AM40 °FDrizzle. Overcast.5 mph88%29.91 "Hg17 mi
12:00 AM40 °FPassing clouds.5 mph87%29.90 "Hg14 mi
11:00 PM
Jan 26
40 °FOvercast.5 mph89%29.90 "Hg12 mi
9:00 PM39 °FLight rain. Overcast.6 mph92%29.90 "Hg5 mi
8:00 PM38 °FLight rain. Low clouds.3 mph94%29.91 "Hg5 mi
7:00 PM38 °FOvercast.3 mph91%29.92 "Hg19 mi
6:00 PM38 °FOvercast.5 mph93%29.95 "Hg12 mi
5:00 PM38 °FLight rain. Overcast.5 mph92%29.97 "Hg6 mi
3:00 PM41 °FOvercast.5 mph80%30.02 "Hg25 mi
2:00 PM40 °FOvercast.3 mph82%30.06 "Hg16 mi
1:00 PM40 °FOvercast.5 mph84%30.09 "Hg9 mi
12:00 PM38 °FOvercast.5 mph85%30.13 "Hg6 mi
Weather by CustomWeather, © 2014

See weather overviewHow to use our weather pages